Temp
23 23 22 22 22 22 22 22 22 22 21 20 21 21 21 21 20 20 20 20 20 20 20 20 20 20 21 20 20 20 20 20 20 22 21 21 21 21 21 21 20 20 19
24 23 23 23 23 22 22 22 22 22 22 21 21 21 21 21 21 21 20 20 20 20 21 20 21 21 21 21 21 21 20 20 20 21 22 22 21 21 20 20 20 20 20
24 24 23 23 23 23 22 22 22 22 22 22 21 21 21 21 21 21 21 21 21 21 21 21 22 21 21 21 21 21 21 21 20 20 21 21 21 20 20 20 20 20 20
24 24 24 23 23 23 23 23 23 23 22 22 22 22 21 21 21 21 21 21 21 21 21 21 22 22 22 22 22 22 21 21 21 20 20 21 21 21 20 20 20 20 20
24 24 25 24 24 24 24 23 23 23 23 23 23 23 22 22 22 22 21 22 21 22 22 22 22 22 22 22 22 22 22 21 21 20 20 20 20 20 20 20 20 20 20
25 26 26 25 24 24 24 24 24 24 24 23 24 24 23 23 23 23 22 22 22 21 22 22 22 22 22 22 22 22 22 21 21 20 20 20 21 20 20 20 19 19 18
26 26 26 25 25 25 25 24 24 24 24 24 24 24 24 24 24 24 23 23 22 22 22 22 22 22 22 22 22 22 22 21 21 20 20 20 21 21 20 19 20 18 18
25 26 26 26 26 25 25 25 25 25 25 25 24 24 24 24 25 24 24 23 22 22 22 22 22 22 22 22 22 21 22 22 21 20 20 20 19 19 19 19 18 17 16
26 26 27 27 27 26 26 26 26 25 25 25 25 25 24 25 25 24 24 23 23 23 23 22 22 23 23 21 21 21 21 20 20 20 19 19 19 19 18 18 17 16 16
27 28 27 27 26 27 27 27 27 26 25 25 25 25 25 25 25 24 23 23 23 23 23 23 23 22 22 21 20 20 19 18 19 19 19 19 19 19 19 19 19 17 16
27 26 26 26 26 26 26 26 26 26 25 25 25 25 25 25 25 24 24 23 23 22 23 23 22 22 22 21 20 19 19 19 20 19 19 19 19 18 19 19 18 17 17
26 26 26 26 26 26 26 26 25 25 24 24 24 24 24 24 24 24 24 23 23 22 23 22 22 21 21 20 20 20 20 19 19 19 19 19 18 19 19 19 17 17 16
25 25 24 24 25 25 25 25 25 25 25 24 24 24 24 24 23 23 23 23 22 22 22 22 21 21 20 20 19 20 19 19 19 19 19 18 18 19 18 17 17 16 15
25 25 25 25 24 24 25 25 25 25 25 25 24 24 24 23 23 23 22 22 22 21 21 21 21 20 20 19 19 19 20 19 19 19 18 18 18 18 17 17 15 15 14
24 24 24 25 24 24 24 24 24 24 25 25 25 25 24 23 23 22 21 21 20 21 21 20 20 20 19 20 20 19 19 19 18 18 18 18 17 16 16 15 15 14 14
22 23 23 23 23 23 24 24 24 24 24 24 24 24 24 23 22 21 21 20 20 20 20 20 20 20 20 20 19 19 19 18 18 17 17 17 16 15 15 15 14 14 14
23 24 24 24 23 23 22 23 23 23 23 23 23 23 22 22 21 21 21 21 20 20 20 20 20 20 20 20 20 19 18 17 18 18 17 15 15 15 14 14 14 13 13
22 22 22 22 22 22 22 22 22 22 22 22 22 22 22 21 21 21 21 20 20 20 21 21 21 20 20 19 19 19 18 18 17 17 16 15 15 14 13 14 14 13 13
21 21 22 22 22 21 21 21 21 21 21 21 21 21 21 21 21 21 21 21 21 21 20 20 20 20 19 19 19 18 18 17 17 16 15 15 15 14 13 13 13 13 13
20 21 21 21 22 21 20 20 20 20 21 20 20 21 21 21 21 21 21 20 20 20 20 19 19 19 18 18 18 17 17 16 16 16 15 14 14 14 14 14 13 14 13
20 20 21 21 21 22 20 20 20 20 20 21 20 21 21 21 20 20 19 18 18 18 18 18 18 18 18 17 17 16 16 16 16 15 15 13 13 14 13 13 13 13 13
19 20 20 20 20 21 21 21 21 21 21 21 20 19 18 19 20 19 18 17 17 17 17 17 16 16 16 16 16 16 16 16 16 15 14 14 13 13 13 13 13 13 12
18 19 19 19 20 20 20 20 20 20 20 19 19 18 17 16 16 16 16 16 16 15 15 15 14 14 15 15 15 15 15 15 15 14 14 14 14 14 13 13 12 12 12
17 17 16 16 16 18 18 19 19 18 18 17 16 16 15 15 16 16 15 14 14 13 13 13 13 13 14 14 14 14 14 15 14 15 14 14 14 14 13 13 13 13 13
16 16 16 15 16 16 17 17 17 16 16 15 15 14 14 14 14 13 12 13 12 13 13 13 13 13 13 13 13 14 14 14 14 14 14 14 14 14 13 13 13 13 13
14 15 15 15 15 15 16 15 15 15 14 13 14 14 13 13 13 13 12 12 12 12 13 13 13 13 13 13 13 13 13 13 13 13 13 13 13 13 13 13 14 13 13
Height
1504 1511 1517 1522 1527 1533 1536 1541 1546 1550 1554 1558 1561 1565 1567 1568 1570 1572 1573 1575 1575 1576 1577 1578 1579 1580 1580 1581 1583 1584 1584 1584 1582 1579 1579 1580 1579 1579 1579 1579 1579 1579 1578
1496 1503 1510 1516 1521 1526 1530 1534 1540 1544 1549 1553 1557 1560 1562 1564 1565 1566 1568 1569 1570 1571 1572 1574 1574 1576 1576 1578 1579 1579 1579 1580 1579 1576 1575 1575 1575 1575 1574 1574 1573 1573 1572
1489 1496 1502 1508 1513 1517 1523 1528 1532 1537 1542 1547 1550 1553 1556 1558 1560 1561 1563 1564 1565 1566 1567 1568 1569 1571 1572 1574 1574 1574 1575 1575 1574 1572 1568 1569 1569 1569 1567 1566 1565 1565 1565
1481 1488 1494 1499 1504 1511 1516 1521 1525 1530 1535 1539 1542 1546 1548 1551 1553 1555 1557 1558 1559 1560 1562 1562 1564 1565 1566 1568 1569 1569 1569 1569 1568 1566 1563 1562 1561 1561 1559 1557 1556 1557 1556
1474 1480 1486 1493 1499 1505 1509 1513 1518 1522 1526 1531 1535 1537 1540 1543 1545 1548 1550 1552 1554 1555 1556 1556 1557 1558 1560 1561 1562 1561 1562 1562 1560 1559 1556 1552 1552 1551 1549 1549 1548 1548 1546
1466 1472 1479 1486 1491 1496 1501 1506 1510 1514 1518 1522 1525 1528 1531 1533 1536 1539 1542 1544 1546 1548 1548 1549 1550 1551 1553 1554 1555 1555 1555 1553 1552 1551 1548 1546 1542 1542 1541 1540 1538 1537 1534
1458 1465 1472 1479 1484 1488 1494 1499 1502 1506 1510 1513 1516 1519 1521 1524 1527 1530 1534 1536 1538 1539 1540 1541 1542 1543 1545 1546 1546 1547 1546 1546 1545 1546 1539 1535 1533 1533 1533 1531 1528 1523 1520
1453 1460 1466 1472 1477 1483 1487 1491 1495 1499 1502 1505 1508 1511 1513 1515 1518 1522 1525 1528 1529 1530 1530 1531 1532 1533 1535 1536 1537 1536 1534 1534 1535 1536 1532 1528 1529 1526 1524 1522 1519 1515 1510
1448 1453 1459 1464 1470 1475 1479 1484 1488 1492 1494 1497 1500 1503 1504 1507 1510 1514 1517 1518 1519 1519 1521 1521 1522 1522 1525 1529 1528 1526 1524 1521 1521 1522 1521 1520 1520 1519 1517 1513 1510 1504 1498
1442 1447 1454 1461 1466 1469 1473 1478 1482 1486 1488 1491 1493 1495 1498 1500 1504 1506 1509 1510 1509 1510 1512 1512 1513 1514 1516 1518 1517 1517 1512 1513 1513 1510 1507 1508 1510 1510 1509 1506 1502 1496 1490
1441 1445 1452 1456 1460 1464 1469 1473 1477 1479 1482 1484 1486 1488 1490 1492 1495 1499 1502 1502 1501 1502 1502 1502 1503 1506 1508 1509 1508 1507 1505 1507 1506 1504 1502 1500 1498 1497 1497 1495 1493 1489 1484
1437 1441 1446 1450 1453 1458 1462 1466 1469 1472 1474 1476 1478 1479 1481 1483 1486 1490 1493 1494 1496 1495 1494 1495 1495 1497 1499 1499 1500 1500 1499 1500 1499 1498 1495 1494 1492 1489 1487 1484 1482 1478 1475
1433 1436 1440 1444 1448 1451 1454 1457 1461 1464 1466 1468 1469 1471 1472 1475 1477 1480 1484 1486 1488 1487 1487 1487 1488 1489 1490 1491 1493 1493 1493 1493 1492 1491 1488 1487 1486 1482 1478 1475 1473 1470 1468
1431 1434 1436 1438 1441 1445 1448 1452 1454 1456 1458 1460 1461 1463 1465 1467 1469 1472 1475 1477 1478 1478 1478 1479 1479 1481 1483 1484 1485 1486 1486 1485 1485 1484 1483 1481 1478 1474 1472 1470 1467 1466 1466
1429 1431 1433 1435 1437 1439 1441 1444 1446 1450 1452 1454 1455 1457 1458 1459 1462 1466 1467 1468 1469 1470 1472 1471 1471 1473 1475 1477 1478 1479 1479 1479 1478 1477 1476 1473 1470 1468 1465 1464 1464 1465 1468
1427 1428 1429 1430 1432 1434 1436 1439 1440 1442 1443 1446 1449 1451 1453 1455 1456 1458 1460 1461 1462 1464 1464 1464 1465 1467 1468 1470 1471 1472 1472 1472 1471 1471 1468 1467 1465 1464 1464 1464 1466 1468 1470
1423 1425 1425 1425 1426 1428 1430 1431 1433 1435 1436 1438 1441 1444 1445 1448 1450 1452 1454 1456 1457 1457 1457 1458 1459 1461 1463 1464 1465 1465 1466 1465 1465 1463 1463 1463 1463 1464 1465 1465 1465 1467 1469
1420 1420 1420 1419 1419 1420 1422 1424 1426 1426 1428 1431 1434 1436 1438 1440 1443 1446 1447 1448 1450 1451 1452 1452 1453 1455 1456 1458 1459 1459 1459 1459 1459 1459 1459 1459 1459 1461 1462 1464 1466 1466 1468
1416 1416 1415 1414 1413 1413 1414 1416 1418 1420 1422 1424 1426 1429 1432 1433 1435 1438 1440 1442 1443 1445 1446 1447 1448 1449 1450 1452 1452 1452 1453 1453 1453 1454 1455 1455 1455 1457 1458 1461 1465 1467 1471
1412 1411 1410 1409 1408 1408 1409 1410 1411 1414 1416 1418 1420 1423 1426 1427 1428 1431 1433 1435 1437 1439 1441 1442 1443 1444 1445 1445 1446 1447 1448 1449 1449 1449 1450 1450 1452 1455 1454 1457 1463 1466 1470
1404 1404 1404 1402 1403 1403 1404 1404 1405 1407 1409 1411 1414 1418 1420 1422 1425 1426 1428 1430 1432 1434 1435 1437 1437 1438 1439 1440 1441 1443 1444 1445 1446 1447 1448 1450 1451 1453 1456 1458 1461 1462 1467
1397 1396 1395 1394 1394 1396 1398 1398 1399 1400 1403 1405 1408 1411 1414 1416 1419 1421 1424 1426 1428 1429 1431 1433 1434 1434 1435 1437 1438 1439 1441 1443 1445 1446 1447 1448 1451 1454 1456 1458 1461 1462 1464
1385 1385 1385 1384 1385 1387 1389 1391 1392 1393 1395 1398 1401 1405 1409 1412 1414 1417 1420 1422 1424 1426 1428 1430 1431 1432 1433 1435 1436 1437 1439 1441 1442 1444 1446 1448 1450 1452 1456 1457 1459 1460 1462
1374 1374 1375 1377 1377 1378 1380 1382 1384 1387 1390 1393 1396 1400 1404 1408 1409 1413 1415 1418 1420 1422 1424 1426 1428 1430 1432 1432 1433 1434 1436 1438 1440 1440 1441 1444 1448 1451 1454 1457 1459 1462 1466
1363 1365 1370 1373 1375 1376 1375 1377 1378 1380 1384 1388 1391 1397 1402 1405 1406 1410 1413 1416 1418 1420 1422 1424 1426 1427 1429 1431 1432 1433 1435 1437 1437 1439 1440 1441 1442 1448 1454 1456 1458 1460 1463
1353 1357 1363 1367 1371 1371 1372 1372 1374 1376 1382 1385 1389 1393 1400 1406 1404 1410 1413 1415 1417 1419 1421 1423 1424 1426 1428 1430 1432 1433 1435 1436 1437 1438 1441 1441 1443 1446 1450 1453 1455 1456 1458
Wind_Speed
53 52 52 46 41 37 36 35 33 31 30 29 27 25 23 21 21 24 24 23 22 21 23 24 24 22 24 26 26 27 27 26 28 26 25 24 27 26 23 22 23 23 22
54 52 51 47 44 41 39 37 35 35 33 31 31 28 27 25 23 22 24 28 27 25 23 27 28 26 25 24 25 28 30 29 30 32 29 27 27 27 28 29 27 26 27
55 54 53 50 48 45 41 39 38 36 36 34 33 33 32 30 30 29 27 28 29 27 23 24 28 30 30 28 28 29 31 32 34 36 37 35 32 31 32 32 33 33 32
53 54 52 51 49 45 41 40 39 38 37 38 36 36 36 34 32 30 30 28 27 26 25 25 23 26 30 32 33 33 34 34 35 38 41 42 41 38 38 39 39 37 37
50 52 50 46 44 42 39 39 38 38 37 37 37 39 39 39 39 36 34 34 33 31 30 29 28 28 27 27 30 32 35 36 38 40 42 44 44 44 45 45 45 43 42
48 47 44 46 45 42 39 38 37 37 36 36 37 38 40 41 40 40 40 39 37 36 36 35 35 35 34 33 33 34 36 38 39 42 44 45 46 46 44 44 45 47 49
48 47 45 45 44 41 39 39 39 38 36 36 36 36 38 40 41 41 41 42 44 44 42 41 41 40 38 38 38 39 41 42 43 43 48 50 49 48 47 47 47 47 49
49 47 45 44 43 41 41 40 38 37 37 36 36 37 37 37 37 38 39 41 43 44 43 42 42 42 41 40 40 41 42 41 39 38 41 45 44 43 45 47 50 50 48
45 44 42 41 39 40 40 39 35 36 36 33 32 34 36 35 32 32 32 35 38 39 39 40 40 40 39 38 39 41 42 43 41 38 36 34 33 33 36 43 52 50 52
41 40 39 39 38 38 35 34 32 33 32 31 31 30 29 28 26 26 28 31 35 37 37 38 39 40 39 38 39 39 41 39 35 35 34 31 29 28 31 33 40 49 51
34 36 35 36 36 37 35 34 33 33 33 34 35 34 34 33 30 28 26 28 32 33 35 36 37 34 31 29 30 31 32 27 26 28 31 34 38 39 36 34 35 36 39
28 33 29 30 32 33 35 35 34 35 35 37 37 37 37 36 34 31 29 29 28 31 33 33 33 30 26 25 24 25 26 25 26 29 31 33 34 36 37 36 34 31 30
14 13 17 21 23 25 28 29 32 31 31 33 34 35 35 35 34 32 29 28 28 30 31 30 28 25 26 25 24 24 24 29 27 31 29 32 35 35 35 33 30 28 22
12 11 9 7 10 16 20 24 27 30 30 30 32 32 31 32 32 30 28 26 26 26 27 26 27 26 29 26 26 25 24 28 26 29 31 30 32 33 30 29 23 20 12
10 10 9 9 9 10 14 19 24 26 28 29 30 28 29 30 27 23 22 22 22 22 20 23 25 22 24 24 23 22 23 24 26 26 28 31 28 23 19 11 2 7 15
6 9 11 12 13 14 16 19 23 26 29 29 28 28 27 25 23 19 17 16 15 15 20 25 23 20 19 19 19 20 21 22 22 25 23 16 8 6 1 5 1 6 12
4 7 12 17 19 19 19 21 23 26 28 29 28 28 28 25 20 18 17 16 15 17 22 23 24 22 20 19 20 19 18 21 19 12 8 2 2 3 5 7 7 10 13
10 9 10 11 14 18 21 23 23 23 22 23 27 28 26 26 20 19 21 20 21 20 21 23 24 23 21 19 19 21 19 14 9 8 5 5 5 6 7 3 6 9 14
13 13 13 13 12 13 19 23 24 23 22 23 26 26 23 21 23 23 21 21 19 19 18 17 17 17 18 20 19 15 13 11 11 10 10 11 9 9 7 8 10 13 17
17 16 16 17 15 12 15 22 24 24 24 25 27 24 21 17 20 22 22 21 19 19 18 18 19 18 18 16 13 13 12 12 10 8 9 12 12 11 11 12 14 17 16
20 17 18 19 17 16 15 21 23 24 23 24 25 25 21 19 17 20 20 20 21 19 18 17 16 15 14 12 12 12 12 10 7 7 8 12 12 13 13 15 19 13 16
24 22 21 23 22 17 18 21 23 23 24 23 25 24 22 20 20 18 18 17 16 15 15 14 13 11 10 10 9 8 9 8 5 8 9 12 13 13 13 15 19 14 18
27 25 26 28 25 23 20 21 26 26 27 27 25 24 20 17 14 12 12 13 14 14 13 12 11 10 11 7 8 10 10 9 9 11 12 12 11 11 13 16 20 21 22
28 27 27 26 27 26 26 25 26 25 24 26 25 22 18 15 15 15 16 15 15 15 14 12 10 9 8 6 7 8 8 9 7 7 11 16 14 14 15 15 16 18 18
23 25 25 28 25 27 27 27 29 30 30 29 27 21 17 17 15 17 16 16 16 14 14 12 11 11 11 10 9 8 9 8 7 6 7 10 10 18 19 16 17 17 18
20 24 27 26 29 29 31 36 34 33 28 26 24 22 22 18 17 17 17 16 15 15 14 13 13 13 11 7 7 7 6 7 6 7 9 8 8 14 17 18 19 18 20
Wind_Direction
226 228 229 233 236 237 237 235 234 233 230 227 228 229 231 237 244 247 250 251 253 253 246 246 249 250 249 249 248 251 255 262 269 278 280 279 278 280 276 271 265 262 262
227 230 231 235 237 238 238 237 235 234 232 230 230 233 232 234 237 244 252 251 251 255 254 250 250 250 250 250 252 254 256 259 266 274 276 275 276 280 277 274 270 263 264
228 232 233 235 237 238 239 240 239 237 234 232 232 233 236 238 240 246 251 251 249 252 259 260 254 254 255 254 255 258 260 262 264 269 276 279 278 277 276 274 270 267 263
231 232 233 235 236 238 241 242 243 241 240 236 234 235 237 240 243 246 247 247 249 252 256 261 264 261 260 261 261 263 265 266 268 270 274 277 278 278 276 273 271 269 267
232 232 233 234 236 237 239 240 242 244 242 242 239 239 240 240 241 243 244 247 252 255 258 262 264 267 269 269 269 270 270 271 271 273 274 277 278 278 276 279 275 274 270
232 232 231 232 234 233 233 236 239 241 242 242 242 240 240 242 243 245 245 248 253 256 260 264 266 268 269 272 272 273 276 277 277 277 279 280 283 283 285 284 283 276 271
229 231 231 231 231 232 234 236 238 240 242 243 245 245 244 244 245 246 249 251 254 258 261 264 266 268 270 272 274 275 275 275 276 279 282 283 286 290 292 290 287 282 277
229 232 233 234 235 236 237 239 242 244 246 248 248 249 249 250 250 249 251 253 254 258 262 265 267 269 271 274 277 279 281 281 281 281 279 283 286 290 291 292 289 286 280
230 234 236 236 236 238 241 243 245 247 249 250 251 251 252 253 254 255 254 254 256 259 262 266 268 272 274 275 279 282 285 287 292 291 292 293 295 296 293 288 280 277 278
232 236 238 240 241 242 244 246 248 249 251 253 255 256 258 259 258 257 256 258 261 263 266 267 268 272 277 281 284 285 287 291 300 305 305 303 301 300 300 297 298 282 276
238 238 239 245 247 250 252 254 254 256 256 256 259 261 262 263 263 262 260 260 262 267 270 273 276 280 283 286 285 285 289 303 299 297 300 301 302 305 307 306 306 304 297
229 243 245 248 249 252 254 256 256 258 260 261 263 264 264 265 265 264 263 264 268 269 272 276 279 283 284 285 286 286 289 292 293 291 288 291 300 304 304 302 309 307 302
176 204 234 242 245 251 255 253 253 255 258 261 261 264 266 267 268 269 268 268 266 268 272 275 279 278 278 278 280 284 284 284 282 285 281 295 301 302 302 301 300 300 292
164 164 171 194 227 236 238 242 247 252 255 258 261 263 267 269 270 271 272 273 270 265 266 271 268 266 268 271 275 278 283 284 285 289 293 298 302 300 302 302 302 296 255
184 196 205 214 224 238 247 249 249 249 251 256 264 270 273 275 278 283 280 274 270 266 268 260 262 260 263 267 270 273 276 281 286 291 298 299 297 302 300 309 343 218 202
241 244 245 248 249 251 255 252 251 253 255 257 260 265 271 274 276 278 274 271 259 252 254 256 257 259 257 256 260 266 274 280 285 291 293 294 303 302 155 142 147 207 189
274 280 277 265 262 265 267 265 259 257 256 258 261 265 270 272 266 266 266 264 256 252 250 253 255 255 257 259 265 269 271 276 286 286 293 285 254 203 185 280 253 203 202
292 296 308 311 275 257 258 264 267 262 261 260 258 261 263 262 257 256 257 256 253 249 253 254 255 256 258 258 258 269 274 271 269 273 256 212 205 234 268 247 204 187 184
290 289 295 303 307 278 270 260 263 262 253 255 258 257 255 253 246 251 255 254 254 255 248 245 244 243 246 254 260 258 254 253 264 262 243 221 216 220 206 200 191 193 186
286 286 283 286 296 290 282 265 268 264 255 254 257 256 252 251 246 245 249 241 239 244 247 246 247 248 249 244 244 246 247 257 257 250 217 204 202 214 187 183 194 188 192
280 278 280 275 281 286 279 273 273 263 256 250 251 246 246 243 248 244 237 236 240 242 245 244 238 232 232 234 239 242 239 233 226 220 199 192 200 208 208 200 187 188 204
262 268 267 269 279 280 272 270 269 254 248 246 242 233 226 226 238 235 238 239 238 233 226 223 222 222 226 218 212 210 198 191 192 182 193 191 197 199 198 198 204 211 192
243 251 253 262 264 269 270 260 261 251 241 234 221 214 211 208 211 215 218 219 215 210 210 207 210 207 194 201 214 212 212 227 230 216 206 200 198 212 216 212 207 197 192
241 245 250 251 247 250 251 242 245 241 221 199 189 186 186 194 200 206 203 200 196 192 192 188 185 191 209 210 191 188 193 197 208 227 228 210 215 214 198 194 195 197 202
240 242 245 242 240 241 227 221 201 187 184 179 176 179 190 192 190 193 185 184 181 182 182 183 190 196 185 177 169 173 181 188 186 176 169 194 211 199 200 200 198 204 211
202 214 221 216 220 205 198 181 174 173 172 169 173 172 175 175 171 177 184 189 192 193 196 198 191 186 185 189 188 182 188 203 217 213 216 210 208 206 217 226 228 226 232